RH
25 28 30 31 34 41 37 31 49 62 62 56 34 15 18 17 17 18 20 22 24 23 24 24 23 21 21 21 24 32 38 45 55 56 58 54 48 52 52 49 41 34 29
17 25 27 30 32 53 53 54 46 33 22 20 17 18 18 18 21 24 27 30 32 31 32 34 32 28 25 25 25 40 42 47 53 51 53 52 52 47 40 37 32 24 20
21 26 33 40 40 46 47 39 43 20 18 19 20 19 20 23 25 28 33 35 38 39 38 38 36 34 28 25 32 49 52 54 62 64 56 46 39 32 31 31 31 30 30
15 25 35 36 46 60 58 28 19 19 20 21 22 23 25 25 30 31 32 37 32 38 42 42 38 37 31 28 42 60 68 66 58 51 43 37 33 29 24 20 16 14 12
14 17 22 31 55 52 31 17 20 25 26 26 28 29 31 30 30 33 37 40 42 44 45 45 41 40 33 37 58 68 69 61 47 38 32 27 21 17 14 12 7 4 3
15 14 13 23 40 32 17 19 26 30 28 30 32 32 29 30 34 36 38 43 44 48 47 44 46 42 43 60 66 66 55 41 36 31 24 18 14 11 9 6 4 5 6
13 15 20 24 17 20 20 24 29 26 23 27 27 24 26 27 28 27 26 27 29 35 41 47 49 50 64 69 68 56 47 40 32 23 17 13 12 12 7 7 7 7 7
26 27 17 17 20 22 24 26 22 20 21 20 21 23 26 26 25 26 27 31 37 42 47 48 54 65 76 74 66 59 50 35 26 18 11 8 6 7 8 9 8 7 7
16 18 18 18 22 25 24 22 20 18 19 21 22 24 25 26 27 27 29 36 46 50 50 53 68 75 70 67 68 59 37 28 21 18 17 10 7 9 9 10 9 8 8
18 15 14 15 17 18 18 18 19 20 22 23 24 26 28 30 30 32 40 50 53 54 53 69 80 77 73 71 69 50 36 31 30 23 19 9 9 9 11 10 11 16 20
15 15 15 16 17 19 20 22 22 22 24 26 27 28 30 33 34 47 56 60 58 55 74 82 75 76 77 72 61 43 31 41 31 20 13 10 10 12 13 14 16 23 29
16 16 18 20 21 21 20 22 25 27 31 31 32 33 35 43 55 63 59 58 58 68 82 82 69 76 67 48 48 36 61 64 30 13 9 10 14 15 19 21 24 30 31
18 18 19 19 20 24 31 36 39 37 35 36 55 59 52 85 74 72 59 60 74 78 91 87 72 79 63 60 65 68 95 84 32 10 10 13 17 18 24 24 24 33 39
20 22 22 22 27 36 40 40 38 44 63 66 67 63 67 82 66 60 60 90 84 78 99 89 79 75 69 68 90 100 80 31 16 10 12 19 20 22 28 26 40 45 43
28 31 37 36 32 36 38 51 59 62 63 62 72 83 86 76 67 61 87 89 99 97 98 94 88 80 80 99 100 85 37 31 13 11 15 23 24 27 44 42 50 43 38
38 42 44 44 46 51 49 54 53 52 60 76 79 73 72 62 85 100 95 90 96 97 100 100 100 100 100 100 95 55 31 16 11 13 19 27 33 37 42 42 43 44 39
31 35 44 51 53 40 35 44 50 51 70 74 77 71 76 96 97 98 100 99 100 100 100 100 100 100 100 98 55 29 16 11 15 18 22 27 36 42 40 40 39 38 34
31 30 27 26 26 35 39 41 61 70 79 83 78 90 90 92 100 100 100 100 99 95 100 100 100 99 98 81 31 16 12 14 18 21 23 28 36 42 43 44 42 36 32
15 14 17 24 34 48 61 73 86 90 76 78 82 85 97 88 81 97 100 100 100 100 100 100 98 96 90 34 12 11 14 20 22 24 25 40 47 44 44 44 39 32 27
16 20 30 53 68 77 73 66 66 78 85 80 89 100 95 100 100 100 100 100 100 100 100 99 94 85 33 12 13 15 19 22 24 28 37 52 56 52 50 46 38 31 26
24 38 56 64 63 59 57 73 79 86 91 100 100 94 96 90 100 100 100 100 100 100 100 97 83 38 15 14 20 20 22 27 33 45 61 57 60 58 54 46 37 30 26
50 55 51 55 57 66 78 80 86 92 97 96 96 92 92 100 100 100 100 100 100 100 92 63 27 15 15 16 22 26 27 34 46 64 71 71 69 66 58 48 36 29 27
40 45 49 61 76 80 83 88 85 88 98 100 100 100 100 100 100 100 100 100 100 97 81 42 17 18 18 20 24 29 38 46 62 67 70 70 73 71 63 50 35 28 29
48 51 68 74 74 78 78 75 75 78 100 100 100 100 100 100 100 100 100 96 77 39 13 17 19 22 25 27 27 28 46 60 72 71 74 83 85 79 66 52 36 27 31
64 64 58 57 60 63 64 65 69 80 100 100 100 100 100 100 100 100 97 73 24 13 16 24 28 28 33 36 34 33 52 63 79 81 82 83 85 80 71 59 41 26 26
65 61 60 61 62 58 48 30 50 77 100 100 100 100 100 100 99 77 35 16 14 19 26 29 35 37 39 42 42 54 67 71 77 80 77 80 87 87 81 70 54 31 23
Wind_Speed
5 6 7 11 13 16 16 18 18 19 21 21 24 19 19 21 26 30 33 36 38 39 42 45 48 50 51 53 55 56 56 52 50 50 51 53 54 54 58 60 64 68 71
4 6 10 13 16 16 19 22 22 24 24 21 17 19 21 25 29 32 35 38 41 44 46 47 49 51 53 54 56 57 56 52 52 54 54 56 58 62 65 69 72 75 78
11 12 15 19 21 20 23 26 24 20 16 17 20 23 27 31 34 35 37 40 42 45 48 50 52 54 55 56 57 57 55 55 55 58 62 65 68 72 77 81 85 88 89
18 18 20 23 23 23 26 27 16 16 18 20 24 28 32 35 38 41 43 46 49 51 53 54 57 59 60 59 59 57 56 57 61 64 68 73 77 82 84 87 89 93 96
24 24 24 25 25 27 27 17 16 18 21 25 29 33 37 41 44 47 49 51 53 54 56 57 59 60 60 60 60 58 59 62 66 70 74 77 81 86 91 93 95 92 86
29 31 31 28 29 26 19 18 20 23 26 30 34 38 41 46 49 51 53 55 56 56 57 58 60 61 60 61 59 60 64 68 71 74 79 85 91 96 98 92 85 81 75
33 34 29 26 21 17 19 22 25 29 32 35 39 43 46 49 52 55 57 60 61 61 60 60 62 63 62 59 61 64 69 72 73 78 87 95 96 96 91 82 77 71 59
28 25 21 17 18 21 24 28 32 35 37 42 45 49 51 54 56 57 59 60 60 62 61 62 64 63 60 60 64 68 72 75 81 90 96 99 97 89 79 73 69 58 46
17 15 17 20 22 26 30 34 38 41 43 47 50 53 56 58 59 60 61 60 58 59 61 64 65 63 62 66 68 72 72 80 88 95 103 104 89 78 71 62 53 47 41
15 20 24 26 28 31 35 39 44 46 47 50 52 56 58 60 61 61 60 59 59 61 63 65 63 63 67 70 74 73 77 84 95 99 106 92 78 68 58 48 43 40 39
22 25 29 32 34 36 39 42 48 50 50 52 56 58 60 61 62 61 60 58 60 62 64 62 62 65 68 74 74 79 77 82 95 98 97 77 68 57 48 42 40 38 38
28 31 32 35 39 42 45 46 51 54 54 56 57 59 60 60 60 60 59 59 61 63 62 64 66 67 70 75 75 79 81 89 97 92 85 70 57 47 42 42 40 39 40
34 37 39 41 42 47 50 52 54 57 57 56 58 59 60 56 59 59 60 61 63 62 66 69 69 70 73 78 79 86 87 93 96 84 72 59 50 43 40 40 40 40 41
38 42 47 51 51 52 53 54 55 55 56 55 59 59 57 56 59 61 61 62 65 67 72 72 71 72 78 82 83 89 91 92 87 73 63 52 46 41 40 39 38 41 43
47 48 51 56 58 56 55 53 54 54 54 54 56 55 56 59 63 61 60 66 67 73 78 76 73 74 79 83 83 84 85 88 79 65 55 47 43 38 37 39 39 42 42
47 50 51 54 55 56 57 55 53 52 51 52 53 56 59 62 59 63 64 66 68 79 90 86 79 82 82 77 87 85 84 80 66 57 48 44 41 38 38 37 38 39 41
50 52 52 54 55 56 55 51 50 51 49 52 56 59 58 58 59 66 67 71 79 85 91 88 85 81 73 79 79 81 78 65 56 50 45 42 40 39 39 40 40 42 43
53 55 55 54 51 50 50 50 48 50 54 56 58 56 58 63 66 64 66 68 77 86 89 85 72 73 73 74 73 74 64 56 51 46 42 40 38 37 38 38 39 40 39
55 53 50 48 47 47 48 48 51 55 56 57 56 57 60 62 64 74 77 80 80 81 80 75 70 74 73 69 60 61 57 48 47 43 40 37 38 39 38 37 38 37 36
47 49 47 45 46 47 51 51 54 55 55 57 59 63 64 73 68 79 82 86 80 67 67 74 74 74 64 59 55 53 50 45 43 40 36 35 37 37 37 37 38 34 32
48 48 47 48 50 52 53 52 53 54 56 57 59 62 63 65 81 81 78 74 64 71 79 77 67 62 56 50 49 49 46 41 39 36 35 36 37 36 35 36 36 33 30
47 48 49 50 51 51 52 54 55 58 59 60 61 63 64 69 82 83 79 66 78 80 76 67 59 51 48 47 47 46 42 37 34 34 36 36 35 34 34 35 35 32 29
48 48 49 49 49 53 55 57 58 60 59 63 64 65 73 79 83 80 75 79 67 64 65 59 51 48 47 44 41 40 37 34 33 33 35 35 34 33 33 33 31 30 28
51 48 47 50 52 54 57 59 61 63 60 62 61 68 74 78 76 77 76 70 66 61 55 52 50 47 47 46 42 37 34 31 32 35 35 34 32 30 30 30 30 27 25
47 49 51 54 57 60 62 62 62 60 58 67 70 71 70 73 75 77 59 60 61 58 53 49 47 46 46 45 42 37 34 30 30 32 31 30 28 28 28 28 28 26 23
50 54 57 60 63 64 63 64 61 58 58 62 62 67 72 75 68 59 56 58 57 52 51 49 48 46 44 42 38 36 34 32 30 29 29 28 28 27 26 25 25 25 23
Wind_Direction
316 304 286 276 274 273 282 295 300 300 298 299 306 311 318 322 324 324 326 323 320 316 315 317 318 316 313 313 313 312 308 305 302 299 298 296 296 295 294 293 291 290 288
289 288 289 285 291 300 303 306 310 308 309 308 312 312 314 317 317 319 321 316 316 317 318 318 318 316 313 310 310 310 308 305 303 301 298 296 296 295 295 294 292 289 288
302 299 297 298 302 306 305 305 307 309 308 307 309 311 315 316 314 314 312 311 313 315 316 316 316 315 314 311 312 311 310 307 307 305 304 303 302 298 298 296 295 294 292
298 298 297 297 298 296 294 301 300 304 304 306 306 307 309 309 306 306 309 313 316 316 316 317 317 317 315 312 312 311 311 310 309 309 309 307 305 301 299 299 296 294 291
292 292 289 289 286 286 291 289 295 302 304 303 304 305 304 305 307 307 310 312 314 316 317 316 316 315 313 312 313 313 312 313 313 312 310 308 305 303 301 299 299 297 295
292 293 294 290 288 291 282 286 300 303 305 303 303 304 306 307 307 308 310 310 312 312 313 314 315 315 314 314 314 315 314 316 317 315 313 312 311 309 307 305 301 299 296
289 290 290 290 289 281 282 289 300 303 304 303 305 306 306 306 307 308 309 308 308 308 312 313 315 315 315 315 316 316 320 320 317 316 318 317 315 312 310 306 303 300 297
288 288 290 289 289 289 290 295 301 303 304 304 304 305 305 306 308 308 308 310 311 311 311 312 315 315 315 315 315 319 320 320 321 324 323 321 317 313 308 306 305 303 299
287 284 289 291 293 294 296 298 300 301 302 303 304 305 305 306 309 310 311 311 309 309 311 314 315 316 317 316 318 319 323 326 328 328 327 326 318 313 309 307 303 302 299
289 293 295 295 297 296 298 299 298 301 303 304 305 305 306 307 310 310 312 310 311 312 313 315 315 316 316 318 318 318 318 323 326 327 329 322 315 311 308 304 302 300 300
288 292 294 296 297 298 298 300 300 302 305 305 306 306 307 308 309 311 311 310 310 311 314 315 315 315 317 317 316 319 319 319 329 330 330 319 314 312 308 305 303 301 300
290 291 293 296 298 299 301 303 303 305 305 306 305 305 306 308 309 309 310 309 310 311 315 315 314 314 315 318 317 318 316 321 333 332 327 319 314 308 306 303 301 301 300
296 297 297 298 301 303 304 305 304 304 305 305 305 305 307 306 307 308 308 310 310 311 312 310 312 313 315 316 316 317 316 328 334 331 323 318 312 309 305 303 303 303 303
296 299 300 301 303 304 304 304 303 303 304 304 303 305 306 305 306 307 311 309 309 310 307 307 311 313 313 314 311 310 326 334 335 328 321 316 312 309 308 303 305 304 305
300 303 304 303 304 304 304 303 302 303 304 305 304 303 303 304 306 310 308 307 303 303 304 306 307 308 310 308 310 326 334 334 332 325 321 315 312 309 307 306 308 308 308
298 300 300 300 302 303 304 303 304 304 305 303 303 305 307 308 310 307 308 310 303 303 306 303 302 300 302 314 327 334 335 334 326 322 319 315 312 310 307 308 308 308 307
298 298 300 301 301 302 302 303 303 304 303 303 304 307 307 307 305 306 307 302 300 304 304 299 297 299 305 325 331 334 333 329 322 321 317 314 312 313 312 313 314 315 313
298 299 299 299 301 301 302 303 303 303 303 305 306 307 310 310 302 299 301 307 307 308 301 296 300 307 321 330 332 333 329 324 320 318 316 313 312 313 313 314 313 314 313
298 298 299 302 302 302 303 304 304 304 304 306 308 308 307 305 300 306 297 292 302 301 296 297 314 326 332 333 329 328 325 322 319 318 316 315 314 315 314 315 317 317 317
299 301 304 304 304 304 303 304 305 306 308 307 310 309 304 297 305 297 291 291 294 293 298 312 325 332 333 331 324 323 322 320 318 318 316 317 316 315 314 316 319 317 316
302 302 304 304 305 305 306 307 306 305 305 307 305 306 307 309 297 290 291 290 291 302 308 323 331 328 329 327 322 322 320 319 319 320 318 317 316 314 315 319 321 318 317
302 304 304 304 304 306 306 305 305 306 306 304 305 306 304 299 294 290 287 291 302 306 318 328 327 322 325 328 322 317 318 318 319 320 319 319 319 318 319 323 322 318 318
303 303 303 305 305 306 306 307 307 306 305 301 303 306 297 291 291 291 294 300 318 324 326 325 321 322 325 324 320 314 315 315 317 319 319 319 318 319 322 325 323 318 319
304 304 305 306 306 306 306 306 306 306 302 296 296 303 299 297 296 295 301 318 326 327 324 323 323 324 325 324 319 315 312 313 315 318 319 318 317 319 323 328 327 322 317
304 304 304 305 306 307 306 305 304 303 299 296 294 298 302 301 295 298 319 325 327 327 324 322 321 325 326 323 319 315 312 311 314 316 317 318 319 321 324 330 332 329 326
303 305 306 307 307 305 305 306 305 306 302 303 303 301 298 294 307 318 323 328 328 324 322 321 320 322 322 320 316 313 313 312 314 315 317 318 319 320 323 329 337 340 339